TimeMDT,TemperatureF,Dew PointF,Humidity,Sea Level PressureIn,VisibilityMPH,Wind Direction,Wind SpeedMPH,Gust SpeedMPH,PrecipitationIn,Events,Conditions,WindDirDegrees,DateUTC
12:23 AM,66.2,64.4,94,29.74,10.0,NE,9.2,-,0.03,Rain,Light Rain,40,2013-09-09 06:23:00
12:55 AM,68.0,64.9,90,29.67,10.0,ENE,3.5,-,0.04,Rain,Light Rain,60,2013-09-09 06:55:00
1:55 AM,66.9,64.9,93,29.66,10.0,SW,8.1,-,0.02,,Partly Cloudy,220,2013-09-09 07:55:00
2:55 AM,66.9,64.0,90,29.68,10.0,West,9.2,-,N/A,,Clear,270,2013-09-09 08:55:00
3:55 AM,66.9,64.0,90,29.69,10.0,West,6.9,-,N/A,,Clear,280,2013-09-09 09:55:00
4:55 AM,66.9,64.0,90,29.70,10.0,West,9.2,-,N/A,,Clear,270,2013-09-09 10:55:00
5:55 AM,68.0,64.0,87,29.72,10.0,WNW,8.1,-,N/A,,Clear,290,2013-09-09 11:55:00
6:55 AM,68.0,63.0,84,29.73,10.0,NW,11.5,-,N/A,,Partly Cloudy,310,2013-09-09 12:55:00
7:55 AM,68.0,62.1,81,29.76,10.0,WNW,12.7,18.4,N/A,,Clear,290,2013-09-09 13:55:00
8:55 AM,69.1,61.0,75,29.77,10.0,West,11.5,-,N/A,,Clear,280,2013-09-09 14:55:00
9:55 AM,72.0,57.9,61,29.78,10.0,NW,18.4,25.3,N/A,,Clear,310,2013-09-09 15:55:00
10:55 AM,75.0,57.9,55,29.80,10.0,NW,12.7,-,N/A,,Clear,320,2013-09-09 16:55:00
11:55 AM,75.9,57.0,52,29.80,10.0,WNW,12.7,19.6,N/A,,Clear,300,2013-09-09 17:55:00
12:55 PM,81.0,55.9,42,29.79,10.0,NW,13.8,18.4,N/A,,Clear,320,2013-09-09 18:55:00
1:55 PM,80.1,55.9,43,29.80,10.0,NW,12.7,-,N/A,,Clear,320,2013-09-09 19:55:00
2:55 PM,77.0,55.0,47,29.80,10.0,WNW,10.4,-,0.00,,Mostly Cloudy,290,2013-09-09 20:55:00
3:55 PM,79.0,53.1,40,29.80,10.0,NW,10.4,-,0.00,,Clear,320,2013-09-09 21:55:00
4:55 PM,78.1,54.0,43,29.81,10.0,NW,3.5,-,N/A,,Clear,320,2013-09-09 22:55:00
5:55 PM,75.9,55.9,50,29.84,10.0,SSW,3.5,-,N/A,,Clear,200,2013-09-09 23:55:00
6:55 PM,73.0,55.0,53,29.83,10.0,SSW,3.5,-,N/A,,Partly Cloudy,200,2013-09-10 00:55:00
7:55 PM,71.1,57.0,61,29.86,10.0,West,5.8,-,N/A,,Clear,270,2013-09-10 01:55:00
8:55 PM,69.1,57.9,68,29.87,10.0,West,4.6,-,N/A,,Clear,270,2013-09-10 02:55:00
9:55 PM,69.1,59.0,70,29.86,10.0,West,3.5,-,N/A,,Clear,260,2013-09-10 03:55:00
10:55 PM,66.9,59.0,76,29.87,10.0,West,5.8,-,N/A,,Clear,260,2013-09-10 04:55:00
11:55 PM,64.9,59.0,81,29.88,10.0,NW,3.5,-,N/A,,Clear,320,2013-09-10 05:55:00